Tracking 31027 objects as of 19-Jul-2025
HD Live streaming from Space Station
objects crossing your sky now

FENGYUN 1C DEB

Track FENGYUN 1C DEB now!
10-day predictions


NORAD ID: 30322
Int'l Code: 1999-025AAK
Perigee: 790.1 km
Apogee: 974.7 km
Inclination: 98.4 °
Period: 102.5 minutes
Semi major axis: 7253 km
RCS: 0.0387 m2 (small)
Launch date: May 10, 1999
Source: People's Republic of China (PRC)
Launch site: Taiyaun Space Center, China (TSC)

Note: This is SATELLITE DEBRIS
Your satellite tracking list
SPACEBEE-134
Track 1 satellite(s)




NASA's NSSDC Master Catalog

Two Line Element Set (TLE):
1 30322U 99025AAK 25198.57242856  .00001209  00000-0  71701-3 0  9990
2 30322  98.4136  66.8836 0127248 314.3917  44.6887 14.05358581941182
Source of the keplerian elements: AFSPC